Location: Unspecified
(0.0000°N, 0.0000°E)
Time: 08:54:34
(UTC+01:00)

deb Ariane - Visible Passes

Search period start: 30 January 2015 00:00
Search period end: 09 February 2015 00:00
Orbit: 132 x 7129 km, 7.5° (Epoch: 29 January)

Date Brightness Start Highest point End Pass type
(mag) Time Alt. Az. Time Alt. Az. Time Alt. Az.
30 Jan 6.7 03:44:36 66° S 03:45:34 67° S 04:22:21 10° E visible
30 Jan 8.0 06:32:19 10° WSW 06:58:45 82° S 07:52:11 10° E visible
30 Jan 2.4 19:42:41 10° WNW 19:45:48 42° N 19:47:08 13° ENE visible
31 Jan 8.0 01:46:26 18° ESE 01:46:26 18° ESE 01:51:32 10° E visible
31 Jan 6.8 04:31:17 48° WSW 04:37:43 72° S 05:21:13 10° E visible
31 Jan 3.9 20:28:18 10° W 20:29:20 21° WNW 20:29:20 21° WNW visible
01 Feb 7.5 02:26:55 32° ESE 02:26:55 32° ESE 02:39:54 10° E visible
01 Feb 7.1 05:10:59 30° WSW 05:22:36 76° S 06:10:16 10° E visible
02 Feb 7.0 03:00:14 46° ESE 03:00:14 46° ESE 03:20:08 10° E visible
02 Feb 7.5 05:43:29 18° WSW 05:59:37 80° S 06:49:19 10° E visible
03 Feb 6.7 03:26:07 58° SE 03:26:07 58° SE 03:51:19 10° E visible
03 Feb 7.7 06:08:32 11° WSW 06:28:10 83° S 07:18:26 10° E visible
04 Feb 6.5 03:44:20 65° SSE 03:44:20 65° SSE 04:12:45 10° E visible
04 Feb 7.7 06:26:51 10° W 06:47:40 85° S 07:37:44 10° E visible
05 Feb 6.4 03:54:36 68° SSE 03:54:36 68° SSE 04:23:59 10° E visible
05 Feb 7.7 06:36:47 10° W 06:57:41 87° S 07:47:06 10° E visible
06 Feb 6.3 03:56:37 68° SSE 03:56:37 68° SSE 04:24:40 10° E visible
06 Feb 7.7 06:37:45 10° W 06:57:49 88° S 07:46:15 10° E visible
07 Feb 6.3 03:50:04 65° SE 03:50:04 65° SE 04:14:32 10° E visible
07 Feb 7.6 06:29:29 10° W 06:47:50 88° S 07:34:45 10° E visible
08 Feb 6.6 03:34:34 53° ESE 03:34:34 53° ESE 03:53:31 10° E visible
08 Feb 7.4 06:12:17 13° W 06:27:39 88° S 07:11:58 10° E visible
